TimeCDT,TemperatureF,Dew PointF,Humidity,Sea Level PressureIn,VisibilityMPH,Wind Direction,Wind SpeedMPH,Gust SpeedMPH,PrecipitationIn,Events,Conditions,WindDirDegrees,DateUTC
12:53 AM,77.0,68.0,74,29.85,7.0,South,13.8,-,N/A,,Partly Cloudy,190,2013-05-21 05:53:00
1:11 AM,69.8,62.6,78,29.95,4.0,WNW,31.1,43.7,0.01,Rain-Thunderstorm,Light Rain,290,2013-05-21 06:11:00
1:14 AM,66.2,62.6,88,29.94,2.0,West,24.2,43.7,0.05,Rain-Thunderstorm,Rain,270,2013-05-21 06:14:00
1:44 AM,64.4,62.6,94,29.91,6.0,West,5.8,-,0.21,Rain-Thunderstorm,Light Rain,270,2013-05-21 06:44:00
1:53 AM,64.9,62.1,90,29.88,7.0,West,4.6,-,0.21,Rain-Thunderstorm,Light Rain,270,2013-05-21 06:53:00
2:00 AM,64.4,62.6,94,29.88,10.0,WNW,5.8,-,0.00,Rain,Light Rain,300,2013-05-21 07:00:00
2:53 AM,64.9,62.1,90,29.86,5.0,SE,6.9,-,0.02,Rain,Light Rain,140,2013-05-21 07:53:00
3:31 AM,64.4,62.6,94,29.87,8.0,SSE,3.5,-,0.01,Rain-Thunderstorm,Light Rain,150,2013-05-21 08:31:00
3:53 AM,64.9,63.0,93,29.86,6.0,SE,6.9,-,0.02,Rain-Thunderstorm,Light Thunderstorms and Rain,140,2013-05-21 08:53:00
4:21 AM,66.2,62.6,88,29.90,2.5,South,10.4,-,0.05,Rain-Thunderstorm,Heavy Thunderstorms and Rain,190,2013-05-21 09:21:00
4:31 AM,64.4,62.6,94,29.89,3.0,South,9.2,-,0.07,Rain-Thunderstorm,Light Thunderstorms and Rain,190,2013-05-21 09:31:00
4:53 AM,64.9,63.0,93,29.88,4.0,South,9.2,-,0.12,Rain,Rain,170,2013-05-21 09:53:00
5:04 AM,64.4,62.6,94,29.90,5.0,South,8.1,-,0.02,Rain-Thunderstorm,Thunderstorms and Rain,180,2013-05-21 10:04:00
5:19 AM,64.4,62.6,94,29.90,4.0,South,8.1,-,0.05,Rain,Rain,170,2013-05-21 10:19:00
5:46 AM,64.4,62.6,94,29.87,4.0,SE,11.5,-,0.11,Rain-Thunderstorm,Rain,140,2013-05-21 10:46:00
5:53 AM,64.0,62.1,93,29.85,7.0,SE,12.7,-,0.11,Rain-Thunderstorm,Light Rain,130,2013-05-21 10:53:00
6:01 AM,64.4,62.6,94,29.82,8.0,ESE,13.8,-,0.00,Rain,Light Rain,120,2013-05-21 11:01:00
6:53 AM,64.9,63.0,93,29.86,9.0,SSE,13.8,-,0.00,,Clear,160,2013-05-21 11:53:00
7:46 AM,66.2,64.4,94,29.88,9.0,SSE,12.7,-,N/A,,Scattered Clouds,150,2013-05-21 12:46:00
7:53 AM,66.9,64.0,90,29.87,9.0,SSE,13.8,-,N/A,,Scattered Clouds,150,2013-05-21 12:53:00
8:53 AM,72.0,64.9,78,29.86,10.0,South,15.0,20.7,N/A,,Clear,180,2013-05-21 13:53:00
9:53 AM,75.0,64.9,71,29.83,10.0,South,16.1,-,N/A,,Clear,190,2013-05-21 14:53:00
10:53 AM,79.0,64.9,62,29.83,10.0,SSW,17.3,29.9,N/A,,Clear,200,2013-05-21 15:53:00
11:53 AM,79.0,64.0,60,29.82,10.0,SW,15.0,26.5,N/A,,Clear,220,2013-05-21 16:53:00
12:53 PM,80.1,64.0,58,29.83,10.0,SW,20.7,29.9,N/A,,Clear,220,2013-05-21 17:53:00
1:53 PM,81.0,66.0,60,29.84,10.0,SSW,19.6,28.8,N/A,,Scattered Clouds,200,2013-05-21 18:53:00
2:53 PM,80.1,64.0,58,29.83,10.0,SSW,18.4,-,N/A,,Clear,200,2013-05-21 19:53:00
3:53 PM,79.0,64.0,60,29.79,10.0,SSW,16.1,-,N/A,,Clear,200,2013-05-21 20:53:00
4:53 PM,78.1,64.0,62,29.79,10.0,SSW,13.8,-,N/A,,Partly Cloudy,200,2013-05-21 21:53:00
5:53 PM,77.0,64.0,64,29.79,10.0,South,17.3,-,N/A,,Clear,190,2013-05-21 22:53:00
6:53 PM,73.9,64.9,73,29.77,10.0,South,9.2,-,N/A,,Clear,170,2013-05-21 23:53:00
7:53 PM,72.0,66.0,81,29.78,10.0,SSE,8.1,-,N/A,,Clear,160,2013-05-22 00:53:00
8:53 PM,72.0,66.0,81,29.78,10.0,SSE,6.9,-,0.00,Rain,Light Rain,160,2013-05-22 01:53:00
9:53 PM,69.1,64.0,84,29.79,6.0,SSW,15.0,-,0.03,Rain,Light Rain,210,2013-05-22 02:53:00
10:53 PM,68.0,64.9,90,29.79,10.0,South,11.5,-,0.01,,Scattered Clouds,190,2013-05-22 03:53:00
11:00 PM,68.0,64.4,88,29.79,10.0,South,12.7,-,N/A,,Mostly Cloudy,180,2013-05-22 04:00:00
11:11 PM,68.0,64.4,88,29.79,10.0,South,10.4,-,N/A,,Mostly Cloudy,180,2013-05-22 04:11:00
11:41 PM,68.0,64.4,88,29.79,10.0,South,11.5,-,N/A,,Mostly Cloudy,190,2013-05-22 04:41:00
11:53 PM,66.9,64.0,90,29.78,10.0,South,10.4,-,N/A,,Mostly Cloudy,180,2013-05-22 04:53:00